Home   Weather   Biel   Past weeks

Flag for Switzerland Past Weather in Biel, Switzerland — Yesterday and Last 2 Weeks

Now
31 °F

Chilly.


Feels Like: 31 °F
Forecast: 27 / 50 °F
Wind: 2 mph from West

Location: Grenchen

Current Time: Dec 9, 2016 at 2:33:19 pm

Latest Report: Dec 9, 2016 at 1:00 pm


Visibility: N/A

Pressure: 30.63 "Hg

Humidity: 99%

Dew Point: 31 °F

Location of BielLocation

Past Weather in Biel — Graph

°F

Biel Temperature Yesterday

Maximum temperature yesterday: 34 °F (at 1:00 pm)
Minimum temperature yesterday: 30 °F (at 12:00 am)
Average temperature yesterday: 32 °F

High & Low Weather Summary for the Past Weeks

 TemperatureHumidityPressure
High46 °F (Nov 24, 3:00 pm)100% (Dec 1, 4:00 pm)30.72 "Hg (Dec 1, 4:00 pm)
Low22 °F (Nov 30, 5:00 am)52% (Nov 28, 4:00 pm)29.85 "Hg (Nov 25, 5:00 am)
Average34 °F91%30.34 "Hg
* Reported Nov 24 12:00 pm — Dec 9 12:00 pm, Biel, Weather by CustomWeather, © 2016

Note: Actual official high and low records may vary slightly from our data, if they occured in-between our weather recording intervals... More about our weather records

Advertising

Biel Weather History for the Previous 24 Hours

Scroll right to see more
 ConditionsComfort  
Time TempWeatherWind HumidityBarometerVisibility
12:00 pm
Fri, Dec 9
31 °FChilly.3 mph99%30.63 "HgN/A
11:00 am30 °FChilly.2 mph99%30.66 "HgN/A
10:00 am30 °FChilly.5 mph100%30.65 "HgN/A
9:00 am29 °FChilly.3 mph99%30.66 "HgN/A
8:00 am30 °FChilly.2 mph99%30.65 "HgN/A
7:00 am30 °FChilly.1 mph99%30.65 "HgN/A
6:00 am30 °FChilly.5 mph99%30.65 "HgN/A
5:00 am30 °FChilly.1 mph99%30.65 "HgN/A
4:00 am30 °FChilly.2 mph99%30.65 "HgN/A
3:00 am31 °FChilly.2 mph100%30.65 "HgN/A
2:00 am31 °FChilly.3 mph99%30.65 "HgN/A
1:00 am31 °FChilly.3 mph99%30.66 "HgN/A
12:00 am31 °FChilly.3 mph99%30.66 "HgN/A
11:00 pm
Thu, Dec 8
32 °FChilly.5 mph100%30.66 "HgN/A
10:00 pm32 °FChilly.5 mph99%30.65 "HgN/A
9:00 pm32 °FChilly.5 mph99%30.65 "HgN/A
8:00 pm32 °FChilly.3 mph99%30.65 "HgN/A
4:00 pm33 °FChilly.5 mph97%30.63 "HgN/A
3:00 pm33 °FChilly.5 mph97%30.63 "HgN/A
Weather by CustomWeather, © 2016

See weather overviewHow to use our weather pages